[[{"header":{"parameterUnit":"m.s-1","parameterCategory":1,"la1":30.2991,"la2":30.254,"lo1":-89.0895,"lo2":-89.0444,"dy":0.0017,"dx":0.0017,"nx":28,"ny":28,"refTime":"2025-01-22T09:00:00:Z","depth":0,"parameterNumber":2,"parameterNumberName":"U-component_of_WINDS"},"data":[0,0,0,0,0,0,0,0,0,0,0,0,0,0,0,0,0,0,0,0,0,0,0,0,0,0,0,0,0,0,0,0,0,0,0,0,0,0,0,0,0,0,0,0,0,0,0,0,0,0,0,0,0,0,0,0,0,0,0.7608,0.7607,0,0.7492,0.7491,0.7489,0.7474,0.7476,0.7477,0.7478,0.7356,0.7352,0.7348,0,0,0,0,0,0,0,0,0,0,0,0,0,0.7815,0.7811,0.7608,0.7607,0.7605,0.7492,0.7491,0.7489,0.7474,0.7476,0.7477,0.7478,0.7358,0.7352,0.7347,0,0,0,0,0,0,0,0,0,0,0,0,0,0.7714,0.781,0.7608,0.7584,0.7581,0.7493,0.7491,0.7489,0.7474,0.7476,0.7477,0.7479,0.7359,0.7353,0.7347,0.7273,0,0,0.7327,0.7324,0,0,0,0,0,0,0,0,0.772,0.7707,0.7589,0.7586,0.7582,0.75,0.7519,0.7416,0.7474,0.7514,0.7478,0.748,0.7402,0.7392,0.7367,0.7268,0.7263,0.7326,0.7323,0.732,0.7318,0,0,0,0,0,0,0,0.7727,0.7712,0.7562,0.7588,0.7583,0.7579,0.7566,0.7499,0.745,0.7511,0.751,0.7496,0.7401,0.7373,0.7364,0.7261,0.7327,0.7321,0.7317,0.7314,0.7095,0.7093,0,0,0,0,0,0,0.7739,0.7718,0.7566,0.7559,0.7657,0.7574,0.756,0.7524,0.7451,0.7442,0.7495,0.7496,0.7383,0.7371,0.736,0.7268,0.732,0.7314,0.731,0.7097,0.7095,0.7093,0,0,0,0,0,0,0.7743,0.7725,0.7571,0.7638,0.7618,0.7568,0.7529,0.7521,0.7494,0.7439,0.743,0.7476,0.7384,0.7369,0.7295,0.7264,0.7311,0.7305,0.71,0.7097,0.7094,0.7085,0,0,0,0,0,0,0.7749,0.7727,0.7699,0.7637,0.7614,0.7508,0.7527,0.7518,0.7483,0.7483,0.7419,0.741,0.7384,0.7305,0.7289,0.7256,0.73,0.7102,0.7098,0.7095,0.7088,0.7082,0.7077,0,0,0,0,0,0.7757,0.7701,0.7698,0.7679,0.7578,0.7507,0.7493,0.7466,0.748,0.7451,0.7417,0.7412,0.7271,0.7297,0.7279,0.7244,0.7104,0.7099,0.7095,0.709,0.7083,0.7077,0,0,0,0,0,0,0.7759,0.7692,0.7688,0.7611,0.7565,0.7504,0.7467,0.746,0.7408,0.741,0.7378,0.7363,0.7291,0.726,0.7291,0.7169,0.7188,0.718,0.7191,0.7184,0.7179,0.7186,0.7295,0,0,0,0,0,0.7751,0.7699,0.7643,0.758,0.7557,0.7516,0.7484,0.7467,0.7418,0.7398,0.7357,0.7309,0.7253,0.7217,0.7164,0.7084,0.7069,0.7051,0.7046,0.7042,0.7034,0.6989,0.698,0.7078,0.7078,0.7078,0,0,0.7732,0.7689,0.7658,0.7579,0.7542,0.7488,0.75,0.7442,0.7401,0.7389,0.7316,0.7285,0.7229,0.7152,0.7116,0.7125,0.7004,0.7036,0.7033,0.7027,0.6983,0.6974,0.6966,0.7075,0.7076,0.7076,0,0,0.767,0.7634,0.7577,0.7539,0.7483,0.7456,0.7442,0.7383,0.7362,0.729,0.7279,0.7231,0.7136,0.7096,0.7064,0.6989,0.6982,0.6973,0.6944,0.69,0.6892,0.6885,0.6857,0.6847,0.6966,0.6966,0.6966,0,0.7654,0.7573,0.7548,0.7491,0.7456,0.7444,0.7385,0.735,0.7278,0.7254,0.7265,0.7146,0.7108,0.7021,0.7003,0.6978,0.696,0.6978,0.6896,0.6888,0.6881,0.6854,0.6844,0.6965,0.6965,0.6965,0.6965,0,0.7555,0.7499,0.746,0.7392,0.7353,0.7295,0.7261,0.7225,0.7212,0.7184,0.711,0.7064,0.7,0.6979,0.6966,0.6891,0.6897,0.6903,0.6921,0.6872,0.6845,0.6834,0.6964,0.6964,0.6964,0.6964,0,0,0.7488,0.7409,0.7394,0.7363,0.7301,0.7257,0.7199,0.7138,0.7106,0.7058,0.7008,0.6929,0.6934,0.6897,0.688,0.6842,0.6784,0.6852,0.685,0.6839,0.6696,0.6691,0.6679,0.6781,0.6779,0.6777,0.67,0,0.7418,0.7314,0.7291,0.7201,0.7149,0.7138,0.7087,0.7043,0.7016,0.6967,0.6938,0.6882,0.6893,0.6871,0.6833,0.6799,0.6754,0.6805,0.6732,0.6729,0.6743,0.6665,0.6659,0.6589,0.669,0.6688,0.6687,0,0.732,0.7271,0.7177,0.7121,0.7098,0.7053,0.6995,0.6949,0.6899,0.6882,0.6842,0.6829,0.6768,0.6792,0.6707,0.6741,0.6711,0.669,0.6686,0.6676,0.6703,0.6651,0.6566,0.6554,0.6671,0.6672,0.6673,0,0.7278,0.7188,0.712,0.7094,0.7029,0.6997,0.6968,0.692,0.6885,0.6834,0.6811,0.6754,0.6722,0.6679,0.665,0.6671,0.6567,0.6589,0.6549,0.655,0.6525,0.6526,0.6431,0.651,0.651,0.651,0.6511,0,0.72,0.7142,0.71,0.7058,0.6993,0.6967,0.6903,0.6874,0.6832,0.6783,0.6771,0.6726,0.6692,0.6642,0.662,0.6552,0.6538,0.6522,0.6516,0.6521,0.6523,0.6498,0.6501,0.6508,0.6508,0.6509,0.6509,0,0.714,0.711,0.7035,0.698,0.6965,0.6919,0.6871,0.6829,0.6804,0.6742,0.6726,0.6685,0.6626,0.6594,0.652,0.6505,0.6427,0.6426,0.6444,0.6441,0.6403,0.6406,0.6286,0.6268,0.6362,0.6361,0.636,0,0.7091,0.7046,0.6987,0.6954,0.6924,0.6872,0.6836,0.681,0.6773,0.6713,0.6679,0.6619,0.6569,0.6475,0.6437,0.6381,0.6376,0.6338,0.6367,0.6373,0.6372,0.6374,0.6369,0.6332,0.6331,0.633,0.633,0,0.7005,0.6993,0.6942,0.6887,0.6845,0.68,0.6755,0.6729,0.6695,0.6654,0.6594,0.6556,0.648,0.642,0.6361,0.6331,0.6323,0.6322,0.6309,0.6312,0.6323,0.6314,0.6427,0.6323,0.6324,0.6324,0.6325,0.6325,0.6947,0.6907,0.6859,0.6803,0.6767,0.6726,0.6684,0.6653,0.6603,0.6539,0.6527,0.6463,0.6415,0.6334,0.6303,0.6252,0.6259,0.6241,0.6236,0.6232,0.6229,0.6335,0.6241,0.6241,0.6241,0.6242,0.6242,0,0.6859,0.6828,0.6777,0.6715,0.6671,0.6672,0.6622,0.6585,0.6529,0.6485,0.6437,0.6368,0.631,0.627,0.6211,0.6178,0.6173,0.6163,0.6164,0.6157,0.6227,0.6242,0.6168,0.6168,0.6168,0.6168,0.6168,0.6168,0.6807,0.6738,0.6721,0.6634,0.6604,0.6541,0.6513,0.6475,0.644,0.6363,0.6315,0.629,0.6247,0.6186,0.6133,0.6122,0.61,0.609,0.6079,0.6144,0.6152,0.6159,0.6173,0.6086,0.6086,0.6013,0.6012,0.6012]},{"header":{"parameterUnit":"m.s-1","parameterCategory":1,"la1":30.2991,"la2":30.254,"lo1":-89.0895,"lo2":-89.0444,"dy":0.0017,"dx":0.0017,"nx":28,"ny":28,"refTime":"2025-01-22T09:00:00:Z","depth":0,"parameterNumber":3,"parameterNumberName":"V-component_of_WINDS"},"data":[0,0,0,0,0,0,0,0,0,0,0,0,0,0,0,0,0,0,0,0,0,0,0,0,0,0,0,0,0,0,0,0,0,0,0,0,0,0,0,0,0,0,0,0,0,0,0,0,0,0,0,0,0,0,0,0,0,0,-7.6386,-7.6389,0,-7.6606,-7.6608,-7.6611,-7.6481,-7.6475,-7.6469,-7.6463,-7.6683,-7.6695,-7.6706,0,0,0,0,0,0,0,0,0,0,0,0,0,-7.5852,-7.5862,-7.6386,-7.6389,-7.6392,-7.6605,-7.6608,-7.6611,-7.6482,-7.6475,-7.6467,-7.646,-7.6679,-7.6693,-7.6707,0,0,0,0,0,0,0,0,0,0,0,0,0,-7.6079,-7.5866,-7.6386,-7.6353,-7.6352,-7.6605,-7.6608,-7.6612,-7.6484,-7.6475,-7.6465,-7.6457,-7.6675,-7.6692,-7.6709,-7.7004,0,0,-7.6763,-7.677,0,0,0,0,0,0,0,0,-7.6066,-7.6098,-7.6355,-7.6356,-7.6356,-7.6507,-7.65,-7.6743,-7.6486,-7.6434,-7.6463,-7.6452,-7.6632,-7.6652,-7.6714,-7.7015,-7.7024,-7.6764,-7.6775,-7.6782,-7.6787,0,0,0,0,0,0,0,-7.605,-7.6088,-7.6473,-7.6359,-7.6359,-7.6326,-7.6348,-7.6546,-7.6582,-7.6438,-7.6429,-7.6457,-7.663,-7.6697,-7.6718,-7.7027,-7.6764,-7.6779,-7.679,-7.6797,-7.7582,-7.7592,0,0,0,0,0,0,-7.6038,-7.6076,-7.6466,-7.6479,-7.6185,-7.6344,-7.6368,-7.6468,-7.658,-7.6588,-7.6465,-7.645,-7.6672,-7.6698,-7.6725,-7.7079,-7.6782,-7.6799,-7.6809,-7.7572,-7.7584,-7.7595,0,0,0,0,0,0,-7.6027,-7.6074,-7.6457,-7.6276,-7.6322,-7.6363,-7.6475,-7.6477,-7.6544,-7.66,-7.6606,-7.6527,-7.6666,-7.6701,-7.6936,-7.7085,-7.6807,-7.6822,-7.7559,-7.7575,-7.759,-7.7789,0,0,0,0,0,0,-7.6012,-7.607,-7.6184,-7.6279,-7.6332,-7.6667,-7.6485,-7.6488,-7.6575,-7.6558,-7.666,-7.6668,-7.6661,-7.6911,-7.6954,-7.7104,-7.6836,-7.7546,-7.7566,-7.7585,-7.7769,-7.7809,-7.7844,0,0,0,0,0,-7.5993,-7.623,-7.619,-7.6238,-7.6475,-7.6675,-7.6705,-7.6693,-7.6587,-7.6702,-7.6738,-7.6665,-7.7062,-7.6936,-7.6983,-7.7141,-7.7537,-7.7561,-7.7583,-7.7753,-7.7802,-7.7843,0,0,0,0,0,0,-7.615,-7.6242,-7.6199,-7.6474,-7.6568,-7.6653,-7.6796,-7.6745,-7.687,-7.6849,-7.6827,-7.6851,-7.7098,-7.7142,-7.7001,-7.7433,-7.7282,-7.7316,-7.7395,-7.7442,-7.7478,-7.7463,-7.6851,0,0,0,0,0,-7.6217,-7.6373,-7.6444,-7.668,-7.673,-7.6756,-7.6842,-7.6825,-7.6921,-7.6959,-7.7013,-7.7107,-7.7253,-7.735,-7.7487,-7.7775,-7.7795,-7.7906,-7.7943,-7.7974,-7.8004,-7.816,-7.821,-7.7672,-7.7671,-7.7671,0,0,-7.6356,-7.6425,-7.6525,-7.6713,-7.6784,-7.6946,-7.679,-7.6966,-7.7086,-7.6985,-7.7213,-7.7255,-7.7359,-7.7623,-7.7741,-7.7668,-7.8157,-7.8003,-7.8027,-7.8041,-7.8189,-7.824,-7.8285,-7.7687,-7.7685,-7.7682,0,0,-7.6692,-7.6761,-7.6965,-7.704,-7.715,-7.7165,-7.7215,-7.7308,-7.7333,-7.7561,-7.7489,-7.763,-7.7881,-7.7959,-7.8031,-7.8398,-7.8336,-7.8443,-7.8638,-7.879,-7.8833,-7.887,-7.9002,-7.905,-7.8472,-7.8473,-7.8473,0,-7.6851,-7.7093,-7.7076,-7.726,-7.7345,-7.7263,-7.747,-7.7542,-7.7691,-7.7751,-7.7666,-7.7981,-7.8045,-7.8326,-7.8416,-7.8477,-7.8532,-7.8432,-7.8828,-7.8866,-7.89,-7.9026,-7.9076,-7.8485,-7.8484,-7.8482,-7.8481,0,-7.7284,-7.7452,-7.7604,-7.7752,-7.7853,-7.8048,-7.806,-7.8164,-7.8138,-7.8163,-7.8395,-7.847,-7.8621,-7.8686,-7.8661,-7.8965,-7.8915,-7.883,-7.8679,-7.8965,-7.9082,-7.913,-7.8503,-7.8498,-7.8495,-7.8492,0,0,-7.7726,-7.7862,-7.7919,-7.7985,-7.81,-7.823,-7.842,-7.857,-7.866,-7.8765,-7.8924,-7.9139,-7.9062,-7.9144,-7.9127,-7.9261,-7.9548,-7.9159,-7.9161,-7.923,-7.9888,-7.9952,-8.0008,-7.9507,-7.9516,-7.9524,-7.9879,0,-7.807,-7.8405,-7.8395,-7.8706,-7.8862,-7.8786,-7.8952,-7.904,-7.9068,-7.9203,-7.9232,-7.9386,-7.9271,-7.9321,-7.945,-7.9486,-7.968,-7.946,-7.9655,-7.9662,-7.9633,-8.0069,-8.0138,-8.047,-7.9925,-7.9933,-7.9938,0,-7.8517,-7.864,-7.8967,-7.906,-7.9125,-7.9274,-7.9411,-7.9541,-7.9639,-7.965,-7.9743,-7.9705,-7.9897,-7.974,-8.0004,-7.9855,-7.9933,-7.9963,-7.9976,-7.9994,-7.9819,-8.0101,-8.0576,-8.0627,-8.001,-8.0005,-7.9999,0,-7.8809,-7.9055,-7.9283,-7.9341,-7.9456,-7.9563,-7.9615,-7.9704,-7.9795,-7.9913,-7.9972,-8.0111,-8.0188,-8.0296,-8.0296,-8.0182,-8.0564,-8.0406,-8.0578,-8.0579,-8.0663,-8.0658,-8.1159,-8.0712,-8.0711,-8.071,-8.0709,0,-7.9196,-7.9399,-7.9415,-7.9556,-7.9781,-7.9768,-7.999,-8.0032,-8.0112,-8.0258,-8.02,-8.0338,-8.033,-8.0469,-8.047,-8.069,-8.0724,-8.0738,-8.0736,-8.0744,-8.0743,-8.0797,-8.0774,-8.0724,-8.0721,-8.0718,-8.0716,0,-7.956,-7.9579,-7.9823,-7.9911,-7.9938,-8.0101,-8.0175,-8.0308,-8.0331,-8.0517,-8.0559,-8.0595,-8.0756,-8.0767,-8.0953,-8.0954,-8.122,-8.1192,-8.1188,-8.1184,-8.1356,-8.134,-8.191,-8.1984,-8.1487,-8.1492,-8.1496,0,-7.9807,-7.9962,-8.0067,-8.0162,-8.0221,-8.0374,-8.0467,-8.0459,-8.0558,-8.0682,-8.0801,-8.0957,-8.1082,-8.1343,-8.1384,-8.1526,-8.1502,-8.1692,-8.1523,-8.1527,-8.1507,-8.1499,-8.1514,-8.1725,-8.1731,-8.1735,-8.1739,0,-8.0243,-8.0245,-8.0382,-8.0524,-8.0637,-8.0747,-8.085,-8.093,-8.0935,-8.1049,-8.1215,-8.1312,-8.1502,-8.1659,-8.1798,-8.1849,-8.1796,-8.1791,-8.1839,-8.185,-8.1842,-8.185,-8.128,-8.1779,-8.1775,-8.1772,-8.177,-8.1768,-8.0557,-8.0692,-8.0788,-8.0943,-8.1019,-8.1117,-8.1247,-8.1286,-8.1425,-8.1581,-8.1567,-8.1751,-8.1845,-8.2026,-8.2089,-8.2232,-8.2167,-8.2236,-8.2254,-8.2271,-8.229,-8.1818,-8.2257,-8.2256,-8.2255,-8.2254,-8.2253,0,-8.0991,-8.1049,-8.1192,-8.1339,-8.1461,-8.1401,-8.1512,-8.1617,-8.1781,-8.1873,-8.1998,-8.2188,-8.2339,-8.2393,-8.254,-8.2644,-8.2623,-8.2683,-8.2676,-8.2689,-8.2339,-8.2284,-8.2697,-8.2697,-8.2697,-8.2697,-8.2697,-8.2697,-8.1232,-8.1457,-8.1471,-8.1733,-8.1789,-8.197,-8.2039,-8.2129,-8.2203,-8.2419,-8.2545,-8.2579,-8.2657,-8.2809,-8.2945,-8.2956,-8.3013,-8.3084,-8.3086,-8.2758,-8.2713,-8.2671,-8.2619,-8.3097,-8.3097,-8.3425,-8.3428,-8.343]}]]